| time (UTC) | temp F | wind direction | speed knots | gust knots | rain 1hr in | rain 24hr in | rain mn in | humidity % | barometer mb |
| 20260504150255 | 76 | 13.9 | 27.8 | 0.00 | 0.00 | 0.00 | 36 | 987.2 | |
| 20260504141255 | 0 | 13.9 | 27.8 | 0.00 | 0.00 | 0.00 | |||
| 20260504140255 | 0 | 13.9 | 27.8 | 0.00 | 0.00 | 0.00 | |||
| 20260504130255 | 81 | 13.9 | 27.8 | 0.00 | 0.00 | 0.00 | 33 | 988.2 | |
| 20260504120255 | 76 | 13.9 | 34.8 | 0.00 | 0.00 | 0.00 | 34 | 988.8 | |
| 20260504110255 | 70 | 13.9 | 27.8 | 0.00 | 0.00 | 0.00 | 47 | 989.9 | |
| 20260504100255 | 70 | 13.9 | 27.8 | 0.00 | 0.00 | 0.00 | 47 | 989.9 | |
| 20260504081255 | 0 | 13.9 | 27.8 | 0.00 | 0.00 | 0.00 | |||
| 20260504080255 | 0 | 13.9 | 27.8 | 0.00 | 0.00 | 0.00 | |||
| 20260504070255 | 0 | 13.9 | 27.8 | 0.00 | 0.00 | 0.00 | |||
| 20260504050255 | 60 | 13.9 | 34.8 | 0.00 | 0.00 | 0.00 | 44 | 989.0 | |
| 20260504045255 | 60 | 13.9 | 34.8 | 0.00 | 0.00 | 0.00 | 44 | 989.0 | |
| 20260504044255 | 60 | 13.9 | 34.8 | 0.00 | 0.00 | 0.00 | 44 | 989.0 | |
| 20260504043255 | 60 | 13.9 | 34.8 | 0.00 | 0.00 | 0.00 | 44 | 989.0 | |
| 20260504042255 | 60 | 13.9 | 34.8 | 0.00 | 0.00 | 0.00 | 44 | 989.0 | |
| 20260504041255 | 60 | 13.9 | 34.8 | 0.00 | 0.00 | 0.00 | 44 | 989.0 | |
| 20260504040255 | 60 | 13.9 | 34.8 | 0.00 | 0.00 | 0.00 | 44 | 989.0 | |
| 20260504035255 | 60 | 13.9 | 34.8 | 0.00 | 0.00 | 0.00 | 44 | 989.0 | |
| 20260504034255 | 60 | 13.9 | 34.8 | 0.00 | 0.00 | 0.00 | 43 | 989.1 | |
| 20260504033255 | 60 | 13.9 | 34.8 | 0.00 | 0.00 | 0.00 | 43 | 989.1 | |
| 20260504032254 | 60 | 20.9 | 34.8 | 0.00 | 0.00 | 0.00 | 43 | 989.1 | |
| 20260504031255 | 60 | 20.9 | 34.8 | 0.00 | 0.00 | 0.00 | 43 | 989.1 | |
| 20260504030255 | 62 | 20.9 | 34.8 | 0.00 | 0.00 | 0.00 | 41 | 987.7 | |
| 20260504025255 | 62 | 20.9 | 34.8 | 0.00 | 0.00 | 0.00 | 41 | 987.7 | |
| 20260504024255 | 62 | 20.9 | 34.8 | 0.00 | 0.00 | 0.00 | 41 | 987.7 | |
| 20260504023255 | 62 | 20.9 | 34.8 | 0.00 | 0.00 | 0.00 | 41 | 987.7 | |
| 20260504022255 | 62 | 20.9 | 34.8 | 0.00 | 0.00 | 0.00 | 41 | 987.7 | |
| 20260504021256 | 62 | 20.9 | 34.8 | 0.00 | 0.00 | 0.00 | 41 | 987.7 | |
| 20260504020255 | 62 | 20.9 | 41.7 | 0.00 | 0.00 | 0.00 | 41 | 987.7 | |
| 20260504015255 | 62 | 20.9 | 41.7 | 0.00 | 0.00 | 0.00 | 41 | 987.7 | |
| 20260504014255 | 62 | 20.9 | 41.7 | 0.00 | 0.00 | 0.00 | 41 | 987.7 | |
| 20260504013255 | 62 | 20.9 | 41.7 | 0.00 | 0.00 | 0.00 | 40 | 987.6 | |
| 20260504012255 | 62 | 20.9 | 41.7 | 0.00 | 0.00 | 0.00 | 40 | 987.6 | |
| 20260504011254 | 62 | 20.9 | 41.7 | 0.00 | 0.00 | 0.00 | 40 | 987.6 | |
| 20260504010255 | 62 | 20.9 | 41.7 | 0.00 | 0.00 | 0.00 | 40 | 987.6 | |
| 20260504005255 | 65 | 20.9 | 41.7 | 0.00 | 0.00 | 0.00 | 39 | 988.1 | |
| 20260504004255 | 65 | 20.9 | 41.7 | 0.00 | 0.00 | 0.00 | 39 | 988.1 | |
| 20260504003255 | 65 | 20.9 | 41.7 | 0.00 | 0.00 | 0.00 | 39 | 988.1 | |
| 20260504002255 | 65 | 20.9 | 41.7 | 0.00 | 0.00 | 0.00 | 39 | 988.1 | |
| 20260504001255 | 65 | 20.9 | 41.7 | 0.00 | 0.00 | 0.00 | 39 | 988.1 | |
| 20260504000255 | 65 | 20.9 | 41.7 | 0.00 | 0.00 | 0.00 | 39 | 988.1 | |
| 20260503235255 | 65 | 20.9 | 41.7 | 0.00 | 0.00 | 0.00 | 39 | 988.1 | |
| 20260503234255 | 65 | 20.9 | 41.7 | 0.00 | 0.00 | 0.00 | 39 | 988.1 | |
| 20260503233255 | 65 | 20.9 | 41.7 | 0.00 | 0.00 | 0.00 | 39 | 988.1 | |
| 20260503232255 | 65 | 20.9 | 41.7 | 0.00 | 0.00 | 0.00 | 39 | 988.1 | |
| 20260503231255 | 65 | 20.9 | 41.7 | 0.00 | 0.00 | 0.00 | 39 | 988.1 | |
| 20260503230254 | 65 | 20.9 | 41.7 | 0.00 | 0.00 | 0.00 | 39 | 988.1 | |
| 20260503225255 | 65 | 20.9 | 41.7 | 0.00 | 0.00 | 0.00 | 40 | 988.6 | |
| 20260503224255 | 65 | 20.9 | 41.7 | 0.00 | 0.00 | 0.00 | 40 | 988.6 | |
| 20260503223255 | 65 | 20.9 | 41.7 | 0.00 | 0.00 | 0.00 | 40 | 988.6 | |
| 20260503222255 | 65 | 20.9 | 41.7 | 0.00 | 0.00 | 0.00 | 40 | 988.6 | |
| 20260503221255 | 65 | 20.9 | 41.7 | 0.00 | 0.00 | 0.00 | 40 | 988.6 | |
| 20260503220254 | 65 | 20.9 | 41.7 | 0.00 | 0.00 | 0.00 | 40 | 988.6 | |
| 20260503215255 | 65 | 20.9 | 41.7 | 0.00 | 0.00 | 0.00 | 40 | 988.6 | |
| 20260503214255 | 65 | 20.9 | 41.7 | 0.00 | 0.00 | 0.00 | 40 | 988.6 | |
| 20260503213255 | 65 | 20.9 | 41.7 | 0.00 | 0.00 | 0.00 | 40 | 988.6 | |
| 20260503212255 | 65 | 20.9 | 41.7 | 0.00 | 0.00 | 0.00 | 38 | 988.9 | |
| 20260503211255 | 65 | 20.9 | 41.7 | 0.00 | 0.00 | 0.00 | 38 | 988.9 | |
| 20260503210255 | 65 | 20.9 | 34.8 | 0.00 | 0.00 | 0.00 | 38 | 988.9 | |
| 20260503205255 | 65 | 20.9 | 34.8 | 0.00 | 0.00 | 0.00 | 38 | 988.9 | |
| 20260503204255 | 64 | 20.9 | 34.8 | 0.00 | 0.00 | 0.00 | 40 | 989.1 | |
| 20260503203255 | 64 | 20.9 | 34.8 | 0.00 | 0.00 | 0.00 | 40 | 989.1 | |
| 20260503202255 | 64 | 20.9 | 34.8 | 0.00 | 0.00 | 0.00 | 40 | 989.1 | |
| 20260503201255 | 64 | 20.9 | 34.8 | 0.00 | 0.00 | 0.00 | 40 | 989.1 | |
| 20260503200254 | 69 | 20.9 | 41.7 | 0.00 | 0.00 | 0.00 | 35 | 988.4 | |
| 20260503195255 | 69 | 20.9 | 41.7 | 0.00 | 0.00 | 0.00 | 35 | 988.4 | |
| 20260503194255 | 69 | 20.9 | 41.7 | 0.00 | 0.00 | 0.00 | 35 | 988.4 | |
| 20260503193255 | 69 | 20.9 | 41.7 | 0.00 | 0.00 | 0.00 | 35 | 988.4 | |
| 20260503192255 | 69 | 20.9 | 41.7 | 0.00 | 0.00 | 0.00 | 35 | 988.4 | |
| 20260503191254 | 69 | 20.9 | 41.7 | 0.00 | 0.00 | 0.00 | 35 | 988.4 | |
| 20260503190254 | 69 | 20.9 | 41.7 | 0.00 | 0.00 | 0.00 | 35 | 988.4 | |
| 20260503185255 | 69 | 20.9 | 41.7 | 0.00 | 0.00 | 0.00 | 35 | 988.4 | |
| 20260503184255 | 69 | 20.9 | 41.7 | 0.00 | 0.00 | 0.00 | 35 | 988.4 | |
| 20260503183254 | 69 | 20.9 | 41.7 | 0.00 | 0.00 | 0.00 | 35 | 988.4 | |
| 20260503182255 | 69 | 20.9 | 41.7 | 0.00 | 0.00 | 0.00 | 35 | 988.4 | |
| 20260503181255 | 69 | 20.9 | 41.7 | 0.00 | 0.00 | 0.00 | 35 | 988.4 | |
| 20260503180255 | 69 | 27.8 | 48.7 | 0.00 | 0.00 | 0.00 | 35 | 988.4 | |
| 20260503175255 | 74 | 27.8 | 48.7 | 0.00 | 0.00 | 0.00 | 32 | 988.4 | |
| 20260503174255 | 74 | 27.8 | 48.7 | 0.00 | 0.00 | 0.00 | 32 | 988.4 | |
| 20260503173255 | 74 | 27.8 | 48.7 | 0.00 | 0.00 | 0.00 | 32 | 988.4 | |
| 20260503172255 | 74 | 27.8 | 48.7 | 0.00 | 0.00 | 0.00 | 32 | 988.4 | |
| 20260503171255 | 79 | 27.8 | 48.7 | 0.00 | 0.00 | 0.00 | 23 | 988.8 | |
| 20260503170255 | 79 | 27.8 | 55.6 | 0.00 | 0.00 | 0.00 | 23 | 988.8 |